Weather History for KPSX - August, 2014

Change the Weather History Date:

Sunday, August 24, 2014

  Actual Average Record
Temperature  
Mean Temperature 88 °F -  
Max Temperature 93 °F 90 °F 97 °F (1980)
Min Temperature 82 °F 75 °F 64 °F (1961)
Cooling Degree Days 22    
Growing Degree Days 38 (Base 50)    
Moisture  
Dew Point 75 °F    
Average Humidity 70    
Maximum Humidity 82    
Minimum Humidity 52    
Precipitation  
Precipitation 0.00 in - - ()
Sea Level Pressure  
Sea Level Pressure 29.92 in    
Wind  
Wind Speed 9 mph (South)    
Max Wind Speed 15 mph    
Max Gust Speed 22 mph    
Visibility 10 miles    
Events      
Averages and records for this station are not official NWS values.
T = Trace of Precipitation, MM = Missing Value Source: NWS Daily Summary

Daily Weather History Graph

Daily Weather History Graph

Search for Another Location

Airport or City:

Trip Planner

Search our weather history database for the weather conditions in past years. The results will help you decide how hot, cold, wet, or windy it might be!

Date:

Astronomy

Aug. 24, 2014 Rise Set
Actual Time 6:58 AM CDT 7:55 PM CDT
Civil Twilight 6:34 AM CDT 8:19 PM CDT
Nautical Twilight 6:05 AM CDT 8:48 PM CDT
Astronomical Twilight 5:36 AM CDT 9:17 PM CDT
Moon 6:10 AM CDT (8/24) 7:16 PM CDT (8/24)
Length of Visible Light 13h 44m
Length of Day
12h 56m
Waning Crescent, 1% of the Moon is Illuminated
Aug 24
Waning Crescent
Aug 25
New
Sep 2
First Quarter
Sep 8
Full
Sep 15
Last Quarter

Hourly Weather History & Observations

Time (CDT) Temp. Heat Index Dew Point Humidity Pressure Visibility Wind Dir Wind Speed Gust Speed Precip Events Conditions
12:53 AM 82.9 °F 90.2 °F 75.0 °F 77% 29.94 in 10.0 mi SSE 10.4 mph - N/A   Clear
1:53 AM 82.9 °F 90.2 °F 75.0 °F 77% 29.93 in 10.0 mi SSE 10.4 mph - N/A   Clear
2:53 AM 82.9 °F 90.2 °F 75.0 °F 77% 29.93 in 10.0 mi South 9.2 mph - N/A   Clear
3:53 AM 84.0 °F 92.6 °F 75.9 °F 76% 29.92 in 10.0 mi South 10.4 mph - N/A   Partly Cloudy
4:48 AM 82.4 °F 89.5 °F 75.2 °F 79% 29.92 in 10.0 mi South 6.9 mph - N/A   Mostly Cloudy
4:53 AM 82.9 °F 90.8 °F 75.9 °F 79% 29.92 in 10.0 mi South 8.1 mph - N/A   Scattered Clouds
5:27 AM 82.9 °F 90.8 °F 75.9 °F 79% 29.92 in 10.0 mi South 6.9 mph - N/A   Mostly Cloudy
5:53 AM 82.9 °F 90.8 °F 75.9 °F 79% 29.92 in 10.0 mi South 6.9 mph - N/A   Mostly Cloudy
6:31 AM 82.9 °F 90.8 °F 75.9 °F 79% 29.93 in 10.0 mi South 5.8 mph - N/A   Scattered Clouds
6:53 AM 82.0 °F 89.4 °F 75.9 °F 82% 29.93 in 10.0 mi South 5.8 mph - N/A   Scattered Clouds
7:53 AM 84.9 °F 94.1 °F 75.9 °F 74% 29.94 in 10.0 mi South 6.9 mph - N/A   Scattered Clouds
8:53 AM 86.0 °F 96.0 °F 75.9 °F 72% 29.94 in 10.0 mi SW 5.8 mph - N/A   Partly Cloudy
9:53 AM 87.1 °F 96.3 °F 75.0 °F 67% 29.96 in 10.0 mi SSW 8.1 mph - N/A   Clear
10:53 AM 88.0 °F 96.5 °F 73.9 °F 63% 29.96 in 10.0 mi SSW 8.1 mph - N/A   Clear
11:53 AM 89.1 °F 99.1 °F 75.0 °F 63% 29.96 in 10.0 mi SSW 10.4 mph - N/A   Clear
12:53 PM 91.9 °F 100.7 °F 73.0 °F 54% 29.95 in 10.0 mi SSE 9.2 mph - N/A   Clear
1:53 PM 91.9 °F 101.3 °F 73.9 °F 55% 29.94 in 10.0 mi South 13.8 mph - N/A   Clear
2:53 PM 93.0 °F 101.9 °F 73.0 °F 52% 29.92 in 10.0 mi South 15.0 mph 21.9 mph N/A   Clear
3:53 PM 91.9 °F 100.7 °F 73.0 °F 54% 29.89 in 10.0 mi South 15.0 mph - N/A   Clear
4:53 PM 91.9 °F 99.5 °F 72.0 °F 52% 29.88 in 10.0 mi South 15.0 mph - N/A   Clear
5:53 PM 90.0 °F 96.9 °F 72.0 °F 55% 29.87 in 10.0 mi South 12.7 mph - N/A   Clear
6:53 PM 88.0 °F 94.7 °F 72.0 °F 59% 29.87 in 10.0 mi SSE 10.4 mph - N/A   Clear
7:53 PM 84.9 °F 90.7 °F 72.0 °F 65% 29.88 in 10.0 mi SE 12.7 mph - N/A   Clear
8:53 PM 84.2 °F 92.3 °F 75.2 °F 74% 29.89 in 10.0 mi SE 12.7 mph - N/A   Clear
9:53 PM 82.9 °F 90.8 °F 75.9 °F 79% 29.91 in 10.0 mi SSE 8.1 mph - N/A   Clear
10:53 PM 84.0 °F 93.7 °F 77.0 °F 79% 29.92 in 10.0 mi SSE 9.2 mph - N/A   Clear
11:53 PM 82.9 °F 91.8 °F 77.0 °F 82% 29.93 in 10.0 mi SSE 5.8 mph - N/A   Partly Cloudy